Location: Bathurst
(33.4193°S, 149.5775°E)
Time: 04:00:11
(UTC+10:00)

Altair - All Passes

Search period start: 19 June 2021 00:00
Search period end: 29 June 2021 00:00
Orbit: 1501 x 1683 km, 47.2° (Epoch: 17 June)

Date Brightness Start Highest point End Pass type
(mag) Time Alt. Az. Time Alt. Az. Time Alt. Az.
19 Jun - 01:03:01 10° NW 01:13:05 84° SW 01:22:48 10° SE visible
19 Jun - 03:09:52 10° W 03:18:57 40° SSW 03:27:44 10° SE visible
19 Jun - 05:17:11 10° SW 05:25:56 38° S 05:34:24 10° ESE visible
19 Jun - 07:22:29 10° SW 07:31:56 74° SE 07:41:07 10° ENE daylight
19 Jun - 09:28:00 10° WSW 09:36:03 34° NW 09:44:00 10° N daylight
19 Jun - 22:35:48 10° N 22:43:49 28° NE 22:51:39 10° ESE night (unlit)
20 Jun - 00:37:47 10° NW 00:47:52 89° SW 00:57:38 10° SE night (unlit)
20 Jun - 02:44:25 10° W 02:53:37 42° SSW 03:02:32 10° SE visible
20 Jun - 04:51:51 10° SW 05:00:36 37° S 05:09:03 10° ESE visible
20 Jun - 06:57:17 10° SW 07:06:44 70° SSE 07:15:54 10° ENE daylight
20 Jun - 09:02:40 10° WSW 09:10:58 38° NW 09:19:10 10° NNE daylight
20 Jun - 22:11:06 10° N 22:18:43 25° NE 22:26:10 10° ESE night (unlit)
21 Jun - 00:12:34 10° NW 00:22:39 86° NE 00:32:27 10° SE night (unlit)
21 Jun - 02:18:59 10° W 02:28:17 43° SSW 02:37:19 10° SE visible
21 Jun - 04:26:30 10° WSW 04:35:15 36° S 04:43:42 10° ESE visible
21 Jun - 06:32:04 10° SW 06:41:31 65° SSE 06:50:40 10° ENE visible
21 Jun - 08:37:20 10° WSW 08:45:53 42° NW 08:54:18 10° NNE daylight
21 Jun - 21:46:28 10° N 21:53:37 22° NE 22:00:38 10° E night (unlit)
21 Jun - 23:47:22 10° NW 23:57:28 80° NE 00:07:16 10° SE night (unlit)
22 Jun - 01:53:32 10° W 02:02:58 45° SSW 02:12:06 10° SE visible
22 Jun - 04:01:09 10° WSW 04:09:54 36° S 04:18:21 10° ESE visible
22 Jun - 06:06:51 10° SW 06:16:18 61° SSE 06:25:24 10° ENE visible
22 Jun - 08:12:02 10° WSW 08:20:48 46° NW 08:29:23 10° NNE daylight
22 Jun - 21:21:56 10° NNE 21:28:31 20° NE 21:35:00 10° E night (unlit)
22 Jun - 23:22:12 10° NW 23:32:16 75° NE 23:42:04 10° SE night (unlit)
23 Jun - 01:28:07 10° W 01:37:40 47° SSW 01:46:54 10° SE visible
23 Jun - 03:35:46 10° WSW 03:44:32 35° S 03:53:01 10° ESE visible
23 Jun - 05:41:38 10° SW 05:51:03 58° SSE 06:00:08 10° ENE visible
23 Jun - 07:46:45 10° WSW 07:55:42 51° NW 08:04:27 10° NNE daylight
23 Jun - 20:57:31 10° NNE 21:03:26 17° ENE 21:09:15 10° E visible
23 Jun - 22:57:04 10° NW 23:07:05 69° NE 23:16:51 10° ESE night (unlit)
24 Jun - 01:02:42 10° W 01:12:21 50° SSW 01:21:42 10° SE visible
24 Jun - 03:10:23 10° WSW 03:19:11 35° S 03:27:40 10° ESE visible
24 Jun - 05:16:25 10° SW 05:25:48 55° SSE 05:34:50 10° ENE visible
24 Jun - 07:21:29 10° WSW 07:30:36 56° NW 07:39:28 10° NNE daylight
24 Jun - 09:32:07 10° WNW 09:33:47 11° WNW 09:35:27 10° NW daylight
24 Jun - 20:33:17 10° NNE 20:38:20 15° ENE 20:43:21 10° E visible
24 Jun - 22:31:57 10° NW 22:41:55 64° NE 22:51:38 10° ESE night (unlit)
25 Jun - 00:37:17 10° W 00:47:03 52° SSW 00:56:30 10° SE night (unlit)
25 Jun - 02:44:59 10° WSW 02:53:49 35° S 03:02:21 10° ESE visible
25 Jun - 04:51:11 10° SW 05:00:32 52° SSE 05:09:32 10° E visible
25 Jun - 06:56:14 10° WSW 07:05:29 62° NW 07:14:28 10° NNE daylight
25 Jun - 09:05:13 10° W 09:08:45 13° WNW 09:12:17 10° NW daylight
25 Jun - 20:09:19 10° NE 20:13:15 13° ENE 20:17:10 10° E visible
25 Jun - 22:06:52 10° NNW 22:16:44 59° NE 22:26:23 10° ESE visible
26 Jun - 00:11:55 10° WNW 00:21:45 55° SSW 00:31:20 10° SE night (unlit)
26 Jun - 02:19:34 10° WSW 02:28:27 36° S 02:37:02 10° ESE visible
26 Jun - 04:25:56 10° SW 04:35:15 49° SSE 04:44:13 10° E visible
26 Jun - 06:30:59 10° WSW 06:40:21 67° NW 06:49:26 10° NE visible
26 Jun - 08:39:04 10° W 08:43:43 15° WNW 08:48:20 10° NNW daylight
26 Jun - 19:46:03 10° NE 19:48:11 11° ENE 19:50:17 10° ENE visible
26 Jun - 21:41:50 10° NNW 21:51:35 54° NE 22:01:09 10° ESE visible
26 Jun - 23:46:32 10° WNW 23:56:28 59° SSW 00:06:08 10° SE night (unlit)
27 Jun - 01:54:08 10° WSW 02:03:04 36° S 02:11:44 10° ESE visible
27 Jun - 04:00:41 10° SW 04:09:58 47° SSE 04:18:54 10° E visible
27 Jun - 06:05:44 10° SW 06:15:13 73° NW 06:24:22 10° NE visible
27 Jun - 08:13:11 10° W 08:18:40 17° WNW 08:24:06 10° NNW daylight
27 Jun - 21:16:49 10° NNW 21:26:25 49° NE 21:35:52 10° ESE visible
27 Jun - 23:21:10 10° WNW 23:31:11 62° SSW 23:40:57 10° SE night (unlit)
28 Jun - 01:28:42 10° WSW 01:37:42 36° S 01:46:26 10° ESE visible
28 Jun - 03:35:25 10° SW 03:44:40 45° SSE 03:53:33 10° E visible
28 Jun - 05:40:30 10° SW 05:50:04 79° NW 05:59:17 10° NE visible
28 Jun - 07:47:28 10° W 07:53:38 20° NW 07:59:43 10° NNW daylight
28 Jun - 20:51:50 10° NNW 21:01:16 45° NE 21:10:35 10° ESE visible
28 Jun - 22:55:50 10° WNW 23:05:55 66° SSW 23:15:46 10° SE night (unlit)
